Theta_e
324 320 314 313 315 311 307 303 296 292 296 290 287 290 293 297 297 299 299 300 298 304 303 313 311 311 305 304 307 311 312 304 303 297 294 307 325 335 337 338 338 338 336 334 334 334 334 342 345 345 346 346 346 343 341 340 338 341 346 346 347 347 345 345 345 345 346 346 345 345 344 340 339 341 341 341 341 341 340 339 340 340 340 340 339 342 343 344 344 344 345 346 345 345 344 344 344
320 316 311 314 312 307 303 299 292 287 287 284 287 289 292 294 299 297 296 297 299 307 310 315 316 317 317 317 316 312 312 316 315 315 324 329 335 335 338 339 338 336 335 334 333 331 333 336 345 346 345 346 346 343 340 338 338 339 340 347 347 346 345 345 345 344 344 343 342 340 341 341 341 340 340 339 340 339 339 340 340 340 340 339 340 342 344 343 343 344 344 346 344 344 343 343 343
319 314 313 311 310 304 302 299 296 284 286 285 284 289 292 296 296 296 297 302 307 311 312 313 313 312 311 312 307 306 303 323 325 327 327 334 330 333 338 339 338 336 335 333 333 331 332 336 343 345 345 346 345 342 341 340 341 341 341 341 344 345 344 344 344 343 342 341 337 336 338 339 338 339 340 339 339 339 338 338 339 339 340 340 340 340 343 343 342 343 343 344 344 343 344 343 343
315 315 310 308 307 301 295 292 289 286 290 284 283 289 292 294 296 297 301 306 309 310 305 307 310 312 312 310 310 315 315 320 325 327 325 330 331 337 339 339 337 336 335 335 333 330 331 338 343 346 345 346 344 342 341 341 340 339 339 341 341 342 342 341 342 341 339 338 338 339 338 336 339 338 336 337 338 338 340 340 340 340 341 340 340 340 340 341 341 342 342 342 343 343 343 343 343
314 317 310 305 303 303 295 292 289 287 288 284 287 288 292 293 298 299 301 303 304 300 302 305 308 313 314 313 311 306 309 320 327 328 327 330 337 338 339 338 337 335 334 334 333 330 332 340 341 344 345 346 345 345 341 341 340 339 336 339 342 341 340 340 340 340 340 340 342 342 341 341 343 342 343 343 343 342 342 342 342 341 341 341 341 340 341 341 341 343 343 342 343 343 343 342 342
310 311 311 307 303 305 297 294 291 289 289 288 289 291 293 297 300 300 302 302 300 301 302 304 308 308 312 314 314 311 320 317 324 324 327 331 337 339 339 337 335 334 334 333 333 331 332 339 341 343 344 345 345 346 346 342 341 339 339 340 339 339 340 343 342 342 343 343 343 343 343 344 344 343 343 343 343 343 343 343 342 342 342 341 341 341 341 341 342 343 342 342 343 343 342 341 341
312 305 303 302 300 299 293 289 287 288 292 291 290 294 297 298 301 300 299 301 303 307 308 310 313 311 310 311 317 320 321 322 324 324 330 334 337 339 339 337 334 334 334 333 333 333 332 339 343 344 345 345 345 346 346 342 340 339 339 339 338 338 339 342 344 344 344 344 344 343 342 342 342 342 342 341 341 341 341 341 340 340 340 340 340 340 341 341 342 342 342 342 342 342 341 340 340
312 307 301 293 291 294 290 288 289 287 291 292 291 299 299 301 300 300 299 300 301 303 309 310 307 306 307 313 310 318 321 323 325 330 334 336 336 337 338 336 333 333 334 333 333 333 340 339 342 343 345 345 345 345 345 342 340 339 339 339 338 338 342 345 345 344 343 341 340 339 339 340 339 339 340 340 340 340 340 339 339 340 339 340 339 339 340 340 341 341 342 341 341 340 340 339 339
307 306 301 296 292 290 286 290 289 289 290 292 297 300 306 302 300 300 298 299 300 303 306 306 305 303 305 310 309 315 319 325 330 333 335 335 335 336 337 334 333 333 335 334 333 332 332 339 340 343 344 345 345 345 345 343 341 340 339 339 338 338 342 343 343 342 341 339 338 337 338 338 338 339 340 339 340 339 339 340 340 339 339 339 339 339 339 340 341 341 341 340 340 340 339 339 338
305 304 296 293 290 292 286 285 289 290 291 295 298 301 302 300 299 299 299 299 303 302 303 301 304 301 307 308 310 316 319 326 331 332 334 335 335 336 335 334 333 335 335 333 333 335 334 341 338 339 341 344 345 345 345 343 341 340 339 338 337 336 337 339 339 338 337 337 337 337 338 339 339 339 340 340 340 339 339 339 339 339 338 339 338 338 339 338 339 341 340 340 340 339 339 339 338
298 299 298 293 287 288 288 284 285 288 295 293 300 301 302 299 298 297 298 299 300 300 304 309 310 310 310 308 307 314 320 326 330 328 332 333 334 335 334 334 334 336 335 334 333 336 336 335 340 337 340 341 344 345 344 342 341 340 339 338 337 337 337 337 337 337 336 336 336 337 339 339 339 339 339 339 339 339 339 338 338 338 338 339 338 338 338 338 338 339 340 339 338 337 337 337 337
297 295 294 286 288 287 286 287 287 288 292 295 300 301 297 299 297 297 298 301 299 302 305 308 307 310 307 305 309 317 322 326 330 330 331 333 335 335 334 334 334 334 336 335 335 335 333 333 334 339 335 336 340 342 342 342 341 341 340 338 338 337 336 336 337 336 340 342 342 338 339 339 339 338 338 338 339 338 338 338 338 338 338 338 338 338 338 338 338 339 339 338 336 336 335 335 335
297 296 291 289 288 290 289 290 289 294 288 292 298 301 297 296 296 298 298 299 299 301 303 305 314 309 305 303 308 316 321 325 328 329 330 333 334 334 333 333 333 334 336 336 337 336 332 331 333 334 332 333 333 335 337 338 340 341 341 340 340 339 341 339 337 338 341 341 342 342 342 341 339 339 340 340 340 338 338 338 338 338 338 337 338 338 338 338 338 338 338 337 336 335 334 334 334
299 297 295 292 288 289 289 288 286 292 290 293 294 296 298 296 296 297 299 299 298 301 302 304 315 312 308 309 313 314 321 324 325 327 331 333 334 334 332 332 332 334 336 337 336 336 333 332 331 330 330 331 330 332 333 336 337 340 339 339 341 341 342 342 341 341 340 340 339 339 340 341 340 340 339 338 338 338 338 337 338 337 337 338 337 337 337 337 337 337 337 336 335 334 333 332 333
303 299 292 289 289 289 289 290 288 288 292 292 297 296 297 298 297 297 301 299 298 300 310 310 313 306 302 310 308 316 322 324 326 327 332 333 333 333 330 330 332 334 336 336 336 336 336 334 332 330 328 328 328 329 329 333 333 336 337 338 338 339 339 338 338 336 336 336 336 336 336 335 335 335 335 335 335 335 334 334 336 336 336 336 336 336 336 336 336 336 335 335 334 334 332 332 332
302 297 293 293 289 290 291 290 288 289 293 293 297 295 297 296 296 300 300 299 299 306 308 310 308 305 306 312 311 321 324 324 326 329 332 332 333 332 330 330 332 334 334 333 334 336 337 336 334 332 328 328 327 327 328 329 331 331 334 334 334 334 335 335 333 332 330 330 330 330 329 328 328 328 329 330 331 333 332 329 332 334 335 335 335 335 335 335 335 334 334 334 334 333 332 331 331
300 298 295 287 290 290 291 290 289 289 290 291 294 296 297 295 297 298 299 301 307 306 311 312 309 313 313 311 310 324 324 325 326 330 331 331 332 330 330 331 331 331 333 333 333 334 336 335 334 333 331 328 328 329 328 328 330 329 330 329 330 330 331 331 330 325 323 323 323 323 325 325 324 325 325 325 325 325 324 326 330 335 335 334 334 334 334 334 334 334 334 334 333 330 326 325 326
302 293 288 289 288 291 293 292 291 291 293 294 294 295 296 293 296 300 305 306 305 306 309 308 312 313 313 314 316 324 324 325 327 329 329 329 330 328 328 329 329 328 330 330 332 334 334 334 334 334 333 331 330 331 331 330 327 329 328 327 325 326 325 324 323 322 325 320 320 322 322 323 323 322 323 328 323 323 325 325 328 332 334 333 334 333 333 334 334 334 334 333 332 329 321 314 314
295 290 289 290 290 294 296 292 293 293 294 296 296 293 297 297 297 298 300 300 305 305 308 308 310 312 315 317 322 322 324 324 326 328 328 327 328 328 327 328 328 329 328 330 331 332 334 333 334 333 334 333 331 331 330 329 329 325 325 326 324 323 324 321 320 321 318 319 317 319 320 322 321 320 322 323 323 322 324 324 327 329 331 330 332 333 333 333 333 333 333 332 330 322 314 312 312
297 293 289 288 294 295 295 293 294 295 295 295 295 294 294 296 298 297 299 300 300 302 306 306 307 311 313 316 321 321 323 323 325 326 327 328 329 329 328 327 327 328 329 330 330 333 334 333 333 333 333 333 332 332 330 329 328 324 325 325 324 323 321 319 318 317 317 317 317 317 318 318 319 319 325 325 326 321 321 323 324 325 327 327 328 326 328 329 330 330 329 325 319 315 313 312 312
297 294 290 292 293 295 295 293 294 293 295 296 296 294 294 295 296 298 297 299 298 299 305 308 309 314 314 318 320 321 321 321 322 324 326 328 329 330 330 329 329 330 331 332 331 332 333 333 333 333 334 333 333 332 330 329 328 324 323 324 324 322 322 320 319 318 316 316 316 318 317 317 317 317 317 318 319 318 317 318 319 318 317 317 319 314 313 313 313 314 311 311 312 312 313 314 313
297 293 294 294 292 293 294 292 291 293 293 296 293 296 296 295 296 296 300 298 297 300 302 307 312 317 316 317 320 321 321 320 321 323 325 327 328 328 330 330 331 332 332 330 331 332 333 334 333 333 333 333 333 332 331 330 328 325 324 324 324 323 323 321 321 320 320 319 318 317 318 318 315 316 316 315 315 316 317 316 315 314 314 314 313 312 312 311 312 310 310 313 311 312 312 312 310
290 291 293 291 292 294 294 293 292 293 295 295 294 297 296 297 296 295 301 300 299 298 302 309 315 318 320 321 321 320 320 320 320 322 324 325 326 328 328 330 329 329 329 330 332 333 334 334 333 333 332 333 333 333 332 330 329 326 324 324 324 324 322 322 321 320 321 320 319 318 318 317 317 316 315 315 316 314 316 315 314 313 313 313 314 313 310 309 309 309 308 309 309 310 313 311 309
292 291 292 295 294 294 294 294 291 292 295 296 296 295 297 294 296 294 297 298 295 293 299 311 316 318 320 319 320 321 320 321 321 322 324 325 326 327 327 327 329 329 328 329 331 333 333 334 334 333 331 332 333 333 331 330 330 328 326 324 324 323 323 323 322 322 322 322 320 320 319 319 319 316 316 314 315 313 316 314 313 313 313 313 313 312 312 310 310 309 309 309 309 307 309 311 309
293 293 293 293 292 294 294 291 290 292 294 292 294 297 297 296 295 293 297 299 295 297 306 316 317 318 319 319 319 320 320 321 321 322 322 324 324 324 324 326 326 326 326 327 329 332 333 334 335 333 333 332 333 333 330 330 330 329 327 325 325 323 323 323 323 322 322 322 321 320 319 319 317 318 317 317 314 316 314 313 313 314 313 312 312 312 311 310 310 310 309 309 307 308 306 310 309
295 294 293 292 292 294 294 293 292 293 295 294 295 294 293 294 295 294 298 297 294 301 314 316 317 318 318 318 319 319 319 320 321 321 322 322 322 322 322 324 324 324 327 327 327 329 331 333 334 334 334 333 333 333 330 328 328 328 327 326 326 323 324 323 321 321 321 321 321 320 320 320 320 319 318 315 316 316 314 312 313 313 314 313 312 312 312 311 311 309 309 308 308 309 308 310 307
295 294 294 293 293 292 294 293 293 292 294 292 296 293 294 293 294 294 294 294 300 306 313 315 317 317 318 318 319 319 319 319 320 322 320 319 320 322 323 322 323 325 326 326 327 328 329 331 332 333 333 332 334 333 331 328 327 327 326 326 325 324 324 323 322 323 320 321 322 320 320 320 320 319 319 317 317 315 315 314 315 312 312 312 313 315 311 311 311 311 312 311 311 309 310 308 308
296 295 295 294 292 291 291 291 292 294 296 292 294 293 292 292 293 293 292 297 302 306 312 314 315 316 317 318 318 319 319 320 321 320 320 319 321 322 322 323 323 324 325 326 327 327 327 329 331 332 333 332 333 334 332 329 327 327 326 326 325 324 324 323 322 323 321 321 321 321 319 319 319 319 319 317 317 316 315 315 315 313 315 312 313 313 312 312 312 311 309 309 308 308 308 308 306
296 295 291 292 292 293 293 293 293 294 295 292 291 294 292 292 292 296 290 299 302 306 311 313 314 315 316 317 318 318 319 319 319 320 321 322 323 323 323 324 324 324 325 327 327 326 327 328 330 331 333 332 332 333 333 330 328 328 327 327 326 325 324 323 322 323 323 322 321 321 320 319 318 319 318 318 316 316 315 316 314 314 315 315 314 313 311 310 310 309 309 309 308 308 307 311 307
297 295 291 290 289 288 293 294 292 293 294 290 294 286 286 292 296 295 292 303 302 303 307 312 313 313 314 315 317 318 319 317 319 320 322 322 323 323 323 324 324 325 325 325 326 326 328 329 330 331 332 332 331 332 332 331 329 328 328 328 327 326 324 324 322 323 323 322 322 321 321 319 318 318 318 316 316 316 316 315 315 315 314 314 313 312 311 310 310 308 310 308 310 308 309 310 306
292 292 292 287 285 284 289 293 292 293 293 292 293 287 287 291 295 294 292 301 304 303 306 310 310 311 313 314 316 317 319 320 320 321 321 322 323 323 323 324 324 324 324 324 325 327 327 328 329 331 329 331 330 331 330 331 329 328 328 328 327 326 325 324 324 323 322 322 322 321 321 320 318 318 318 318 316 317 315 314 313 316 314 311 313 312 313 310 309 312 308 311 309 307 307 308 307
296 291 287 286 285 284 289 291 292 293 293 291 292 286 290 291 291 290 292 299 302 301 304 307 309 311 312 313 314 315 316 319 320 320 321 321 322 323 323 323 324 324 324 324 325 326 326 327 328 330 328 330 330 331 330 330 330 329 328 325 328 326 326 325 324 324 323 322 321 321 321 320 319 318 317 316 316 316 316 316 315 314 313 313 313 313 315 315 313 312 312 313 313 314 313 313 309
293 290 286 285 283 286 288 292 290 293 292 293 291 287 286 291 291 287 288 298 301 301 301 304 307 308 309 311 312 313 313 313 315 318 320 321 322 323 324 324 324 324 325 324 324 324 325 326 326 329 328 329 330 330 330 329 329 328 327 327 328 326 326 326 325 324 323 322 321 321 321 321 321 320 318 316 317 316 314 317 315 318 319 318 317 316 315 317 315 315 315 314 314 314 312 312 313
289 287 285 287 286 286 286 288 291 291 292 290 291 289 288 289 288 287 291 295 298 299 300 302 304 306 307 308 309 311 312 313 314 317 318 320 322 323 324 322 324 324 324 324 324 324 325 326 326 328 329 329 330 330 329 329 328 328 326 326 324 327 326 326 326 325 324 323 322 322 321 322 324 323 321 320 320 319 319 319 319 321 321 320 318 317 317 317 315 314 315 312 311 311 311 312 312
288 285 284 286 285 285 287 288 290 292 291 290 289 288 292 293 293 290 291 290 295 298 299 299 301 302 303 304 306 308 310 311 313 316 319 320 321 322 324 324 324 323 324 324 324 324 325 325 326 325 327 328 329 329 328 328 327 326 325 325 324 325 325 326 326 325 325 325 325 325 324 324 324 324 324 323 323 321 320 319 321 322 322 320 319 318 317 316 314 313 313 313 310 312 312 311 311
289 288 287 287 287 287 287 289 288 293 289 288 287 289 292 293 294 293 291 291 292 294 292 291 295 298 299 299 301 303 307 309 313 314 317 319 321 322 323 324 324 324 324 324 323 323 324 324 325 326 326 328 328 328 327 326 325 324 324 320 322 323 324 324 324 326 326 327 328 328 327 327 325 325 325 325 325 323 323 321 320 319 319 320 319 318 317 315 314 312 312 312 312 312 309 310 311
290 290 288 287 287 287 289 288 289 289 290 288 288 290 291 293 294 294 291 290 291 290 291 292 292 293 296 297 298 299 302 306 310 310 312 316 319 321 322 323 323 322 322 323 323 323 323 324 324 325 326 327 327 326 325 326 325 324 324 325 325 323 323 322 323 324 325 328 329 329 328 327 327 326 326 326 325 323 324 323 322 320 319 319 319 319 319 317 316 314 311 309 311 311 309 308 306
291 288 287 286 287 285 289 290 290 289 289 288 287 287 290 292 293 291 289 290 292 292 292 292 293 292 293 296 298 298 301 302 303 306 309 311 315 317 319 321 319 320 321 322 322 323 324 324 324 325 326 326 327 328 327 326 327 327 326 325 324 322 322 322 324 324 325 323 325 328 328 328 328 327 326 326 326 325 324 323 321 321 320 319 319 318 316 312 313 312 310 308 306 311 310 308 306
290 289 288 285 286 287 290 289 289 289 289 287 285 286 290 291 292 291 288 291 293 294 295 295 295 293 292 293 295 298 297 299 300 304 306 309 312 316 318 319 321 322 322 321 323 323 323 324 324 325 325 326 327 327 327 326 327 326 326 322 325 317 316 320 322 321 322 323 323 324 325 327 328 328 327 325 326 326 325 324 323 323 322 320 317 317 317 315 315 314 312 312 312 309 310 308 306
290 288 285 283 287 287 285 287 288 290 288 286 284 285 288 290 291 290 289 290 290 292 294 295 294 294 294 294 295 296 297 298 298 300 304 307 310 314 316 318 320 321 321 321 322 322 323 323 324 325 325 325 327 327 325 327 326 324 320 319 321 323 319 313 318 315 319 320 321 320 322 323 324 326 327 326 325 326 325 324 323 321 320 320 320 319 316 316 315 313 311 311 313 312 309 309 308
289 289 286 285 286 287 287 287 288 288 288 286 285 285 285 288 289 290 289 289 290 292 291 291 293 294 295 295 294 294 296 297 298 299 301 303 307 311 314 317 318 319 320 321 322 322 324 323 323 324 325 325 326 325 324 324 320 317 315 314 315 316 314 314 315 318 319 319 320 320 323 322 321 322 323 324 323 325 325 325 324 323 322 321 319 318 317 318 318 317 315 314 313 314 313 309 304
288 290 289 289 288 287 287 287 288 286 285 287 288 280 282 282 284 288 292 289 288 290 291 292 293 293 293 293 294 295 295 295 297 298 300 301 305 309 312 314 316 319 320 322 323 323 323 323 323 323 324 324 325 325 324 323 322 322 319 321 321 321 322 319 320 322 320 320 322 320 318 319 321 322 321 322 323 323 325 325 325 324 322 321 318 318 318 317 318 317 316 316 314 313 314 308 306
286 288 291 290 289 288 288 287 288 282 281 284 287 284 278 282 284 287 289 288 290 291 290 293 293 293 292 293 295 295 295 294 294 295 296 297 300 305 310 313 315 317 320 321 322 322 323 324 323 323 324 324 324 323 323 321 322 322 322 323 324 323 323 322 316 314 319 318 317 318 320 317 319 322 322 323 324 324 325 325 325 324 323 322 319 319 319 319 319 318 316 315 315 314 309 311 312
285 290 290 290 290 289 288 288 288 285 285 286 286 284 279 282 288 285 283 284 287 289 290 290 291 293 294 294 295 295 296 295 295 295 296 298 299 303 308 312 315 317 318 318 320 320 321 322 322 322 322 321 322 322 321 322 323 322 321 321 320 321 321 320 313 312 309 311 315 316 314 316 318 320 322 322 324 325 324 324 323 322 322 322 320 320 320 320 319 316 314 314 313 312 312 312 312
287 293 293 292 292 291 290 289 286 284 285 283 283 284 281 278 282 283 283 285 285 288 289 290 292 292 294 295 296 296 296 296 295 295 295 296 297 300 305 309 314 315 316 317 318 319 320 321 320 320 321 320 319 319 320 321 321 322 322 321 319 317 317 314 309 306 312 307 312 308 311 314 316 318 320 322 323 324 322 323 323 323 322 321 317 318 317 317 316 315 313 312 312 312 312 312 311
290 291 294 291 290 288 289 286 286 284 282 281 283 282 279 278 279 282 281 283 284 286 289 291 291 292 293 295 295 296 295 293 292 294 295 296 297 299 302 306 309 314 315 314 315 315 317 318 317 317 319 319 318 318 319 320 321 319 320 319 319 316 310 307 307 308 309 308 313 310 309 311 311 312 314 315 317 318 320 319 319 319 319 317 313 316 316 315 314 314 313 312 312 311 312 312 311
294 293 292 290 287 286 284 284 283 283 277 282 281 280 281 278 281 285 285 285 287 289 289 289 290 290 291 292 293 295 295 293 292 292 292 294 295 296 297 304 307 306 307 308 311 313 314 315 316 317 318 318 317 318 318 319 319 319 321 319 319 316 312 312 309 304 304 305 311 307 305 307 306 308 309 309 312 314 316 316 318 318 316 312 313 315 314 314 314 313 312 310 309 310 310 310 309
294 290 288 288 287 285 285 282 283 278 278 279 279 279 279 277 278 281 285 284 283 289 290 292 291 289 290 291 291 292 291 292 292 291 292 293 294 295 295 300 303 304 302 305 308 309 311 313 315 316 315 316 316 317 317 318 319 319 319 319 318 317 314 313 313 312 308 311 309 309 305 304 303 304 306 310 313 313 315 313 311 313 312 313 314 313 312 313 313 313 313 312 312 312 311 309 310
291 289 288 284 279 280 278 280 277 277 277 280 277 278 279 280 283 284 284 285 286 284 288 291 291 291 290 289 289 290 290 290 292 293 294 294 295 296 296 298 299 300 304 304 306 308 310 311 313 315 315 313 315 315 316 317 317 317 318 317 317 316 315 314 314 312 308 311 307 306 304 307 301 304 302 306 306 308 310 311 311 309 308 309 310 311 312 313 312 312 311 310 310 310 310 309 308
289 287 284 282 277 277 275 274 270 272 277 278 278 280 278 279 281 289 290 293 293 289 287 287 288 290 292 292 290 291 291 291 292 294 294 295 296 296 297 297 299 301 301 303 303 305 307 309 310 313 315 311 311 312 314 314 315 316 316 316 316 315 314 313 312 312 308 309 308 308 308 308 306 306 303 302 304 306 306 306 306 307 308 308 306 308 309 310 310 310 310 309 309 308 308 307 307
289 291 288 284 282 276 274 274 276 277 279 277 278 277 274 277 282 284 291 291 289 285 286 286 286 287 288 289 290 290 290 291 292 294 295 296 296 295 296 297 297 298 298 299 300 302 304 307 308 310 311 307 309 311 313 314 314 313 314 315 315 314 314 311 311 311 308 306 305 307 306 304 306 304 304 304 303 304 302 302 304 305 307 309 308 308 307 307 306 307 306 306 306 306 305 305 305
288 289 290 285 284 284 278 277 276 274 273 274 275 277 278 282 282 285 285 286 288 288 287 286 289 289 290 291 293 293 292 292 290 292 294 294 293 293 293 294 296 297 297 297 298 299 301 305 306 308 311 307 308 309 311 313 313 312 311 312 311 310 308 309 306 303 306 308 306 308 305 304 304 303 302 303 301 301 300 302 304 306 307 307 307 307 306 305 304 304 304 304 304 303 303 302 302
286 286 285 286 289 288 282 279 279 277 274 274 274 277 281 280 286 290 283 283 289 288 288 287 289 289 289 292 293 292 292 290 290 291 292 293 291 292 293 294 294 295 295 297 298 298 300 301 303 305 305 304 307 308 310 311 311 310 309 309 307 307 308 308 308 306 306 305 306 305 305 302 303 303 302 301 299 299 298 300 301 299 300 302 302 302 303 303 304 303 302 302 302 301 302 301 301
287 284 287 289 290 289 284 278 274 275 274 275 272 277 277 277 280 283 281 286 288 288 289 287 286 285 288 292 292 293 292 292 290 290 289 290 291 293 293 293 294 295 295 295 296 295 297 299 302 304 303 305 304 306 307 308 308 309 307 307 307 308 309 308 307 306 305 305 303 302 302 302 301 300 300 299 300 298 297 295 296 293 293 294 293 294 294 294 295 296 299 299 299 300 299 298 298
289 287 292 288 281 281 281 279 275 272 272 270 271 274 275 276 280 282 285 283 288 290 290 287 289 289 291 292 292 292 290 289 291 292 291 291 292 292 292 293 294 294 295 295 295 295 295 296 298 303 304 305 305 306 306 306 308 309 308 307 307 307 307 308 307 306 305 306 303 303 302 300 297 297 299 298 297 295 292 290 291 290 290 290 291 291 291 291 292 292 293 294 295 296 295 294 295
289 289 287 288 285 283 279 281 276 277 275 270 273 271 279 279 279 281 288 289 289 290 288 288 289 290 292 292 292 292 291 291 291 292 292 291 291 290 291 293 294 295 295 295 296 296 297 298 299 299 300 301 302 303 304 306 305 307 305 305 306 307 306 306 305 305 304 303 302 302 301 301 299 297 297 295 293 290 290 290 289 290 289 289 288 287 288 289 290 289 289 289 287 289 289 289 290
284 285 284 286 286 286 286 284 282 280 272 269 270 271 274 278 282 284 289 290 291 289 289 289 289 290 291 292 292 291 291 291 292 293 293 292 292 291 291 291 291 291 293 294 297 298 298 298 299 300 303 303 303 303 305 305 305 306 306 306 307 307 305 303 301 301 301 299 300 301 301 298 295 294 292 291 289 289 289 289 288 288 289 289 289 288 287 288 289 289 289 288 288 288 289 289 289
287 286 285 286 284 281 281 280 280 275 277 273 268 275 276 282 282 287 288 289 287 286 287 289 289 289 289 290 291 291 291 291 291 292 291 291 291 292 291 290 290 292 293 295 298 298 296 298 300 301 303 304 304 304 305 305 306 307 306 306 306 305 304 303 300 298 298 296 296 297 295 294 294 288 289 289 288 287 288 288 289 290 289 290 292 295 292 293 293 292 291 293 290 290 289 285 285
Wind_Speed
5 3 2 2 3 3 2 6 1 3 2 0 0 0 2 0 1 1 2 1 2 3 2 3 4 4 1 2 7 4 0 5 2 6 2 2 2 6 7 9 7 7 6 3 3 3 1 5 7 8 10 11 11 10 10 10 8 10 15 15 14 14 14 16 15 15 17 17 16 16 16 15 15 16 16 17 17 16 16 17 16 16 16 15 16 17 18 18 19 18 18 18 17 18 17 17 18
2 3 2 1 0 1 1 2 4 3 6 4 2 1 2 1 1 3 4 2 2 3 1 9 8 11 12 11 8 3 4 2 2 1 3 2 6 5 8 9 9 9 5 3 3 3 2 2 7 9 11 12 10 11 12 11 9 10 11 14 14 14 14 14 14 15 15 15 15 15 15 15 15 15 15 16 16 16 16 16 16 16 16 15 16 17 18 18 18 17 17 17 18 17 16 17 17
2 4 2 3 3 4 2 4 1 1 3 2 3 4 2 2 4 3 3 5 6 6 4 7 7 5 3 2 3 1 1 2 6 3 4 8 11 7 8 8 8 8 7 4 4 3 2 1 5 9 11 11 11 12 12 11 11 11 11 12 14 15 14 13 13 14 13 14 14 12 14 15 14 15 16 16 16 16 16 16 16 16 16 15 15 16 17 17 17 17 17 17 17 16 16 17 17
1 4 2 3 2 4 1 3 4 3 1 3 2 2 1 5 4 4 2 7 8 6 2 1 4 2 4 5 2 1 4 2 1 6 7 9 3 9 8 9 8 6 6 5 4 3 2 1 4 9 11 11 12 13 11 11 12 10 9 11 12 12 13 13 14 14 13 12 12 13 14 13 15 15 14 15 15 16 15 15 15 15 16 15 15 15 16 16 16 16 16 16 16 16 16 16 16
3 2 2 3 3 2 1 0 3 2 1 4 1 3 3 4 6 4 4 1 2 1 1 3 4 3 1 5 1 1 3 3 3 1 3 2 7 9 9 9 8 7 6 5 4 3 2 5 5 7 9 11 9 12 10 12 11 11 8 10 13 12 11 12 13 14 14 13 13 13 13 14 14 15 15 15 15 15 16 16 15 15 16 16 15 15 15 15 16 15 15 16 17 17 16 16 17
5 2 4 2 0 2 5 1 1 1 5 5 1 2 4 5 8 5 3 2 3 2 3 3 4 4 2 1 2 2 3 4 3 1 3 5 11 10 10 8 8 7 6 5 4 3 4 6 5 6 10 11 11 12 9 10 12 11 9 11 11 11 11 12 14 13 13 12 13 14 14 14 14 14 15 15 15 15 15 15 15 15 15 15 15 15 16 15 16 17 16 17 17 16 16 16 16
0 4 5 4 2 4 3 1 2 3 6 6 3 3 8 5 5 6 3 2 2 1 1 3 5 5 5 1 2 1 1 2 3 2 4 7 10 10 10 8 8 8 7 5 4 4 4 6 6 5 7 11 12 11 9 10 12 11 9 10 11 10 11 12 12 13 13 13 13 14 14 15 14 13 13 14 14 14 14 14 14 14 14 14 14 15 15 15 15 16 16 17 17 16 15 15 15
2 2 2 2 1 2 1 0 4 5 2 6 2 7 6 8 5 5 6 3 3 1 1 4 2 5 1 3 3 2 3 1 3 6 9 10 9 10 9 8 8 8 7 5 4 4 6 7 6 4 7 11 11 11 10 9 12 11 10 11 11 11 12 14 14 13 14 14 13 13 13 13 13 13 12 13 13 13 13 13 14 14 14 14 14 13 14 15 15 16 16 16 16 16 16 16 15
5 6 0 4 1 2 2 2 3 3 5 2 3 4 9 6 6 6 4 0 1 1 4 3 1 6 2 2 2 2 2 1 7 10 11 10 10 10 7 8 9 9 7 6 5 3 4 7 6 6 8 9 11 11 9 9 10 12 11 11 10 10 13 13 13 14 13 12 12 12 12 12 12 13 12 13 13 13 13 14 13 14 14 13 13 13 13 13 14 15 16 15 15 15 15 15 14
2 2 1 2 4 1 3 4 1 1 2 1 3 4 5 4 4 0 6 3 4 5 1 1 1 4 4 4 1 1 2 2 10 9 9 10 9 8 8 7 8 12 9 6 5 4 4 8 6 5 6 9 10 10 9 9 10 11 12 11 10 8 9 12 12 12 11 12 11 12 12 12 12 12 13 12 12 12 12 13 13 13 13 13 12 12 12 13 14 15 15 15 15 14 14 14 13
1 5 2 3 2 1 2 4 3 5 1 3 0 1 1 2 2 2 1 4 1 3 2 1 5 6 4 1 1 2 1 4 12 11 9 10 9 8 8 6 7 10 10 8 6 5 4 4 7 5 6 8 9 9 7 9 11 11 11 11 11 11 10 10 11 11 11 11 11 12 13 12 12 12 12 12 12 12 12 13 13 12 13 13 13 12 12 12 12 13 14 15 15 15 14 13 12
1 1 2 3 2 5 4 2 3 5 4 0 2 1 2 4 2 3 3 9 2 3 3 4 4 4 4 2 0 1 3 6 11 10 10 9 8 7 7 6 7 7 9 8 6 5 4 4 4 5 6 7 8 8 7 6 10 10 9 11 11 11 10 10 10 12 13 12 11 10 13 13 12 12 11 11 10 11 11 11 11 12 12 12 12 12 11 11 12 11 12 12 14 14 14 13 12
3 1 5 4 2 1 2 0 2 1 3 3 4 1 3 4 4 4 4 3 3 6 1 4 9 3 3 2 3 1 5 8 6 10 9 8 7 6 5 6 6 8 8 7 8 7 5 4 4 3 4 7 7 7 7 6 9 9 8 8 9 10 8 7 9 11 13 12 12 12 12 12 11 10 10 9 8 11 11 10 10 11 11 11 11 11 11 11 9 9 10 11 11 13 13 13 11
2 3 4 2 1 3 3 1 2 1 3 2 2 1 4 3 4 4 6 5 4 4 2 7 6 5 2 1 1 3 7 6 5 8 8 7 7 6 6 6 6 7 7 8 9 7 5 4 4 3 4 4 4 6 8 8 8 8 8 7 9 10 8 10 11 12 11 10 10 10 10 11 11 11 11 11 11 10 9 9 9 11 11 11 11 11 10 9 7 8 8 9 10 11 12 12 11
1 1 4 4 1 1 2 2 4 4 5 2 3 5 2 3 3 5 7 9 4 1 0 2 4 3 5 7 3 8 9 7 8 6 8 7 7 7 5 5 6 6 8 8 7 8 7 5 4 4 3 4 4 4 4 5 8 8 8 8 9 9 9 10 10 11 10 9 10 10 10 10 9 10 10 10 9 9 9 8 8 8 10 10 10 9 9 7 7 7 7 8 8 9 10 11 10
3 4 3 1 1 2 2 1 1 2 5 4 1 5 5 2 1 6 3 2 2 2 1 4 1 1 3 10 6 13 10 9 8 9 9 9 8 7 6 5 5 7 7 8 7 6 7 6 5 4 4 4 4 4 4 4 6 8 8 9 9 9 9 10 10 10 10 10 10 10 10 8 8 7 10 8 9 8 8 6 7 7 9 9 9 9 8 6 6 6 6 6 8 9 9 9 9
2 3 0 3 2 2 3 2 5 3 3 3 1 5 6 2 0 0 1 1 9 4 0 1 2 1 5 4 3 11 9 9 9 11 11 8 7 7 6 6 5 6 5 7 7 7 8 7 7 5 4 4 4 4 3 4 5 8 7 8 9 8 8 9 9 10 9 9 8 8 8 6 5 5 6 5 7 5 6 6 6 6 7 8 8 9 7 6 5 5 5 6 8 8 7 8 8
1 0 3 1 3 3 4 5 7 1 4 4 4 6 7 3 1 1 3 5 3 2 1 4 2 1 2 2 1 11 11 13 12 14 11 9 8 8 7 7 7 7 7 6 6 7 7 7 8 7 5 5 5 4 4 3 3 5 5 4 4 5 6 7 6 5 6 4 8 6 4 4 4 4 4 5 4 4 5 8 8 7 6 5 6 8 8 6 4 4 4 6 7 7 7 4 4
1 2 2 6 4 5 5 3 6 2 3 6 5 5 7 8 9 4 4 1 2 2 1 2 1 4 3 2 9 12 11 12 12 13 14 12 11 12 8 8 9 8 8 6 6 9 7 7 7 8 7 6 5 5 4 4 4 3 4 4 4 5 4 4 4 4 4 4 4 4 4 4 4 3 4 4 4 5 5 7 7 7 6 6 5 4 5 4 4 4 4 5 6 6 4 3 3
1 3 3 5 6 4 4 3 4 5 2 3 5 5 4 5 5 2 3 7 3 8 6 1 3 2 3 5 10 11 11 11 11 13 14 13 12 11 11 10 10 10 9 8 7 7 6 7 9 7 8 7 5 5 4 4 3 3 4 4 4 4 4 3 3 3 3 4 3 3 3 3 3 3 4 6 5 3 3 5 6 6 6 6 6 4 5 5 5 4 5 5 4 3 3 3 3
1 1 3 2 1 1 4 4 6 4 3 2 4 2 3 3 3 5 5 6 6 7 7 10 12 9 8 10 12 11 12 11 10 11 13 13 12 11 11 11 10 9 8 7 6 8 9 9 8 8 7 7 7 6 5 5 5 4 3 4 4 4 4 3 3 3 3 3 3 3 3 3 2 2 3 3 3 3 3 3 3 2 2 2 3 2 1 1 2 2 2 3 2 3 4 4 4
1 4 1 3 0 1 6 3 4 2 4 4 4 8 8 3 0 5 12 11 10 12 10 8 9 13 13 14 13 12 13 12 11 12 15 15 15 13 9 7 5 5 6 8 9 8 9 8 8 7 8 9 7 7 6 6 6 5 5 5 4 4 4 4 4 4 4 4 3 3 3 4 2 2 2 3 2 2 3 2 2 2 1 2 1 1 0 0 1 1 1 2 4 3 3 3 3
2 3 2 2 3 3 3 2 2 2 2 5 7 6 5 8 3 5 11 13 3 1 4 9 9 15 16 17 15 14 14 14 13 14 15 15 14 13 11 10 9 9 7 8 8 7 8 8 8 7 7 7 8 6 4 5 5 5 5 5 5 5 4 4 5 5 5 4 4 4 5 4 3 3 2 2 3 2 3 2 2 1 2 1 0 1 1 1 1 1 1 2 3 4 5 4 4
5 3 3 8 1 5 6 5 3 3 8 8 4 2 6 5 6 2 7 6 1 3 2 8 5 5 8 12 15 18 18 17 16 14 15 16 16 15 12 11 9 8 8 9 8 8 8 10 9 8 7 7 6 7 7 7 5 5 5 5 5 5 5 5 5 5 4 5 4 5 4 5 5 4 3 3 3 2 3 3 1 1 1 1 0 0 1 1 1 1 1 2 2 2 3 5 5
3 1 5 7 5 6 7 4 4 2 4 0 4 6 7 5 3 3 9 9 2 2 4 8 7 8 8 12 15 14 15 14 13 11 7 8 10 9 8 8 9 8 10 9 8 8 9 9 10 9 9 9 7 7 6 6 5 5 5 5 6 5 5 5 5 4 5 4 4 5 4 5 4 5 5 4 3 4 2 2 2 3 2 2 1 1 0 1 1 1 1 2 2 3 3 4 3
1 2 4 7 9 11 9 5 2 0 0 3 3 5 0 3 1 3 10 5 2 3 5 8 9 10 11 12 14 14 13 14 13 11 13 8 8 9 9 9 8 9 10 10 9 9 8 9 10 11 10 9 8 7 6 6 6 6 6 6 6 5 6 5 4 5 5 5 5 4 5 5 6 6 5 4 4 5 4 2 2 3 3 1 2 3 3 1 3 2 2 2 3 3 3 4 2
1 6 7 9 13 9 4 3 1 1 1 4 6 2 0 2 2 9 2 4 6 5 7 6 11 13 12 10 11 11 13 14 16 13 7 7 8 11 11 9 10 10 9 9 8 8 8 9 10 10 10 9 8 8 7 7 6 6 6 5 5 6 6 5 5 5 5 5 5 5 5 5 5 5 5 5 4 5 4 3 4 3 3 3 3 4 2 3 2 3 4 4 4 3 4 2 1
4 7 11 11 7 4 6 4 4 0 0 2 4 1 1 1 1 10 3 3 7 9 6 9 9 11 12 11 11 10 10 11 9 9 15 13 13 12 12 12 11 10 10 10 8 7 7 10 10 10 10 9 9 9 8 8 7 7 6 5 6 6 5 6 5 5 5 5 4 4 5 5 5 5 5 5 5 5 5 5 4 3 5 3 4 4 4 4 5 3 2 2 2 1 3 3 2
3 8 11 14 8 6 4 5 3 1 1 3 3 1 1 1 7 8 2 2 5 8 9 10 10 9 9 10 10 9 11 9 7 10 14 13 10 10 13 11 11 11 8 9 9 8 10 10 10 10 9 9 10 11 9 8 7 7 6 7 6 6 6 5 6 6 6 5 5 5 5 5 5 6 6 6 6 5 5 4 4 5 5 5 5 4 4 3 2 3 3 0 1 1 2 4 2
4 3 2 10 7 6 7 0 1 3 1 4 2 5 6 9 16 2 0 6 5 5 6 8 8 8 7 8 9 10 7 6 9 12 11 11 10 11 12 11 10 11 9 7 8 10 9 7 8 8 9 10 11 9 9 8 8 7 7 6 6 6 5 6 6 5 6 5 5 5 5 5 5 5 5 5 5 5 4 4 4 5 5 4 4 3 5 3 4 3 4 1 3 2 4 4 3
1 4 1 4 5 6 4 1 2 4 1 3 2 5 7 9 11 5 3 5 10 8 6 8 7 7 7 8 9 10 11 11 14 14 12 11 10 9 11 9 10 10 7 8 12 12 9 8 8 7 9 10 10 10 10 9 7 8 7 7 6 6 6 6 6 5 5 6 5 5 5 5 5 5 5 6 5 5 5 4 5 5 3 3 4 4 4 3 3 5 3 5 4 3 3 4 3
2 3 6 2 4 6 7 1 4 8 1 2 4 4 10 8 9 4 4 6 5 9 8 8 8 8 9 8 9 9 10 10 10 9 10 10 9 10 11 12 11 10 11 11 10 8 10 9 9 9 9 11 11 11 9 9 8 8 7 7 6 6 6 6 6 6 6 5 6 6 5 5 5 5 4 4 5 5 5 5 5 3 3 2 3 3 3 5 5 4 4 4 4 6 4 5 3
1 5 2 7 1 5 7 2 2 2 2 1 7 6 4 7 7 3 3 8 8 8 7 8 9 10 9 9 9 9 7 7 8 10 10 11 10 10 10 11 11 13 11 9 11 10 10 10 10 11 12 12 11 10 9 8 8 7 7 7 8 7 7 7 6 6 5 5 5 6 5 6 5 5 5 5 5 5 5 5 5 5 4 4 4 3 3 4 3 4 4 4 3 5 3 4 5
6 2 5 4 5 3 5 4 2 1 1 4 2 4 7 4 2 3 1 6 8 8 9 9 9 9 9 8 8 9 9 10 12 13 14 12 11 12 11 10 11 10 10 10 10 12 12 10 10 11 10 11 11 11 10 9 8 8 7 7 6 8 7 6 6 6 6 6 5 6 5 6 5 5 5 5 5 5 5 5 4 4 4 4 4 4 5 2 3 3 5 3 3 2 4 5 6
11 6 2 6 3 5 5 1 2 6 1 4 3 6 13 11 9 2 3 4 7 12 12 10 9 9 9 8 8 9 10 11 14 13 13 13 13 12 11 10 10 10 9 11 10 10 9 9 9 11 11 11 10 10 9 8 7 6 6 6 6 7 6 5 6 6 6 6 6 6 6 5 5 5 6 6 5 5 4 4 3 3 3 4 4 4 4 2 2 3 4 6 3 3 3 4 5
9 7 4 2 5 5 5 6 3 8 5 5 6 10 13 14 14 7 1 5 7 9 2 3 6 7 6 7 8 9 10 14 13 10 11 10 11 12 11 10 10 9 10 10 10 9 10 9 9 9 10 10 9 8 8 7 6 7 7 4 5 6 5 5 5 6 6 6 6 6 6 6 5 5 5 6 6 5 5 6 6 5 4 4 4 4 5 5 5 5 6 5 4 4 4 5 4
3 1 1 6 5 6 4 4 3 2 1 8 8 9 12 15 13 9 4 3 5 5 7 9 8 8 9 9 10 12 12 16 11 8 7 10 12 11 10 9 9 9 10 10 11 11 12 12 11 13 11 10 9 9 8 9 9 7 6 9 9 6 6 5 6 5 6 6 6 7 7 6 6 5 5 5 6 5 5 4 3 4 4 5 5 6 7 6 6 5 4 4 6 5 3 4 2
1 1 2 6 4 7 5 1 2 4 4 4 5 6 12 13 12 6 1 4 8 10 12 11 11 9 9 10 12 13 15 7 2 4 8 8 9 9 9 9 9 11 11 11 13 14 13 13 13 12 9 10 11 11 10 9 9 10 9 8 5 5 5 7 7 5 6 5 5 6 6 6 7 6 5 5 6 6 5 5 3 4 3 4 5 4 3 3 3 4 4 4 2 4 4 3 3
1 2 2 4 7 4 10 5 1 1 2 9 1 5 12 13 14 6 5 7 6 9 12 15 13 10 9 10 12 12 7 11 7 9 7 7 10 11 11 11 11 13 12 13 13 12 13 12 11 10 10 11 11 11 10 10 8 7 8 5 8 3 3 5 5 5 6 6 6 5 5 5 7 7 7 6 6 6 6 6 6 6 6 6 3 5 6 6 6 8 6 6 4 2 4 1 3
3 2 3 6 1 0 5 2 1 0 3 2 1 5 9 9 8 9 7 7 7 7 8 10 6 10 11 15 14 11 12 13 13 12 12 10 10 11 10 11 12 11 11 10 11 13 11 11 11 11 11 11 11 11 11 9 8 6 5 4 5 6 5 4 4 3 4 4 6 5 5 5 4 5 6 7 6 6 6 5 4 3 3 4 7 5 4 7 7 6 4 5 5 5 3 4 4
4 6 4 4 5 3 4 4 2 2 1 2 1 4 7 7 9 8 5 8 7 7 5 5 6 9 11 6 4 7 13 13 13 11 10 8 9 12 14 13 10 11 13 13 13 13 10 12 12 13 12 12 11 10 11 7 5 4 3 3 3 2 2 3 3 5 5 4 4 5 6 5 5 5 5 5 5 6 6 6 6 6 6 5 4 5 6 8 7 7 7 7 6 7 6 3 2
7 8 8 6 4 5 6 4 3 3 3 3 2 2 8 4 5 10 10 1 6 8 8 10 11 11 9 9 13 11 10 10 12 13 13 12 13 11 10 10 12 13 13 13 12 12 11 11 11 11 10 10 11 10 10 8 8 9 7 7 7 7 8 7 9 8 5 6 7 3 3 5 5 5 5 5 6 6 6 6 7 6 6 5 5 6 7 4 5 7 8 6 6 6 7 4 3
7 7 9 6 6 4 5 5 1 3 5 4 1 9 7 5 5 6 8 7 10 7 6 12 10 9 8 11 12 13 14 12 9 8 7 7 9 7 10 12 14 13 14 10 11 11 12 12 12 12 11 10 10 9 10 9 8 8 11 12 10 10 9 7 2 3 5 5 4 5 5 4 5 6 6 6 6 6 6 5 7 7 6 6 5 5 6 6 5 5 4 5 7 6 3 5 9
6 3 9 6 1 4 6 5 6 7 1 4 1 3 5 8 10 4 3 3 8 10 9 10 9 9 11 12 14 14 14 12 11 13 12 11 11 13 15 16 13 16 12 9 11 9 12 13 11 11 10 10 9 8 9 10 11 10 9 9 9 9 10 9 5 5 4 4 6 6 5 4 5 6 6 6 6 7 7 7 4 3 4 5 4 4 5 5 4 2 1 2 2 2 4 6 6
2 4 4 1 1 2 2 2 6 3 1 8 2 1 2 6 7 3 1 4 6 11 10 11 12 12 13 14 16 15 15 14 12 12 13 14 14 14 13 12 13 10 10 12 12 12 11 10 10 10 11 9 7 9 10 10 10 11 10 9 8 7 7 6 5 4 5 4 5 4 4 5 4 4 4 5 5 5 5 6 7 5 4 3 2 2 2 1 1 2 2 2 3 3 4 5 3
6 2 5 5 5 4 1 2 3 2 2 10 7 4 5 8 5 4 2 2 7 8 10 11 13 14 14 15 15 15 11 8 8 12 12 11 11 11 11 9 8 12 10 9 8 7 8 8 9 10 10 9 8 9 10 11 11 9 9 9 11 8 5 4 5 5 4 4 5 5 5 4 4 4 1 1 2 2 4 3 2 2 3 3 3 1 1 1 1 2 2 3 3 3 3 4 5
3 5 4 3 3 2 3 3 1 1 6 11 5 3 5 7 6 9 8 7 8 9 8 6 7 8 9 10 11 11 8 7 8 9 8 9 7 6 5 9 9 5 6 6 7 8 7 9 10 11 11 8 9 10 11 11 10 10 10 10 11 9 7 7 6 4 3 3 5 4 4 3 1 2 2 2 3 4 4 5 5 5 4 3 3 3 2 1 1 1 2 2 2 3 3 3 4
6 3 4 5 2 2 2 2 1 4 11 3 1 3 4 10 4 5 7 4 4 8 9 11 9 7 9 7 8 10 8 8 8 7 10 9 6 6 5 7 7 7 5 7 7 6 8 8 9 11 9 10 9 9 10 11 10 11 10 10 10 9 9 8 9 8 7 7 6 6 2 3 2 3 3 4 4 4 4 3 3 4 3 2 4 3 2 1 1 1 1 1 0 1 1 1 1
7 3 5 7 2 2 4 1 6 10 7 1 0 2 0 14 6 7 6 9 7 7 10 10 9 8 6 7 9 8 6 6 8 10 10 8 10 10 9 8 6 7 10 9 9 9 8 8 10 11 11 9 10 9 11 11 10 10 10 10 9 8 9 9 9 8 7 7 6 5 5 5 4 5 4 5 3 3 3 2 3 3 3 4 4 3 3 3 2 3 2 2 2 2 2 2 2
10 9 6 7 5 6 9 4 1 5 6 3 1 0 6 3 5 13 16 16 15 9 10 10 9 11 12 9 7 6 6 6 8 7 7 9 9 9 9 8 9 8 9 10 9 9 8 8 9 11 12 9 8 8 10 10 10 10 9 9 9 8 9 8 7 7 7 6 7 8 8 7 6 6 5 4 3 3 2 2 2 3 2 2 2 4 3 3 2 2 3 3 3 3 3 4 4
9 3 6 5 4 4 8 5 11 8 8 2 3 1 7 4 4 4 13 7 7 4 6 7 7 9 9 8 8 8 6 5 5 5 7 8 7 6 7 7 7 7 7 7 7 8 7 8 9 10 8 8 8 10 9 10 9 9 8 8 9 7 8 7 7 7 7 7 5 7 5 5 6 5 5 3 2 3 3 2 2 2 2 3 3 3 4 4 4 3 3 3 3 2 2 4 3
6 4 3 5 12 4 2 5 2 2 4 4 2 6 4 5 3 8 4 7 8 7 8 5 9 5 5 7 8 8 5 4 4 5 5 5 4 4 4 5 5 6 6 6 7 7 7 9 8 9 10 9 9 9 8 9 9 8 8 9 8 8 6 6 5 4 4 6 7 7 7 6 5 5 4 5 3 4 4 4 3 3 4 4 3 3 3 3 3 2 2 2 3 2 5 5 3
5 5 12 6 3 5 2 3 0 1 2 9 1 7 7 7 8 9 4 4 8 5 7 5 6 5 3 7 7 6 5 4 4 4 4 4 3 3 4 4 4 4 4 7 7 7 8 7 7 7 6 6 8 8 8 8 8 8 8 8 7 7 8 9 8 7 7 5 6 6 6 6 6 5 5 5 5 5 4 4 5 4 4 4 5 3 4 4 3 3 3 3 4 2 6 5 5
8 10 8 3 1 4 5 6 2 2 7 8 2 6 5 3 8 4 6 6 12 8 8 6 6 4 5 7 7 7 6 5 4 4 4 4 4 4 4 4 4 4 4 4 5 4 5 5 6 8 7 9 7 7 8 8 9 9 8 8 8 9 9 8 8 8 7 7 5 6 5 6 5 5 6 5 6 5 5 5 6 5 3 5 5 4 5 5 6 5 5 5 3 5 5 4 4
7 9 6 9 6 7 1 1 8 5 7 5 3 1 4 5 6 7 9 2 7 8 7 4 7 6 8 8 8 6 5 5 5 5 4 4 4 4 4 5 4 4 4 4 3 4 4 4 5 6 9 8 9 7 7 6 8 8 8 8 9 7 6 7 7 8 8 8 7 6 6 6 5 5 7 6 6 5 5 4 5 5 5 5 4 5 4 5 5 6 5 5 3 3 5 4 3
1 3 4 0 2 3 4 7 2 3 7 1 9 1 10 6 6 8 11 12 10 13 8 7 7 7 7 7 7 7 6 6 5 5 5 4 4 4 4 4 4 5 4 4 4 3 5 5 5 5 4 5 6 7 7 8 6 7 7 6 6 7 8 8 8 9 7 7 7 7 7 6 6 5 6 6 6 6 5 6 5 5 5 5 5 4 4 5 6 6 4 5 3 5 5 4 3
1 2 5 1 3 1 2 0 5 5 2 2 2 6 5 6 9 9 14 14 13 2 4 6 7 7 9 9 8 6 6 6 6 6 5 4 4 2 2 3 3 1 1 3 4 5 5 4 5 6 9 8 7 7 7 7 7 7 9 9 8 8 8 7 7 6 7 6 6 7 6 6 6 5 6 6 6 6 5 6 6 5 5 5 5 4 4 5 6 6 5 4 4 5 5 3 3
9 9 9 11 9 6 8 11 3 1 2 6 0 13 4 8 3 10 12 11 3 2 4 8 8 8 6 7 7 6 6 6 5 4 4 4 3 1 0 1 1 3 3 3 3 4 4 5 6 6 7 8 8 7 7 8 7 8 9 9 8 6 7 7 7 6 7 7 6 7 7 6 7 4 5 6 6 6 5 6 6 5 5 4 4 5 4 5 6 5 4 4 4 5 4 3 3
Wind_Direction
328 335 292 126 72 98 57 0 90 316 51 282 359 71 186 162 207 80 158 338 53 330 330 64 59 39 182 197 143 140 129 127 200 132 215 227 148 130 130 126 122 112 115 114 101 78 67 119 112 109 121 122 120 116 109 109 114 113 104 104 107 102 94 94 91 91 87 87 92 94 87 90 92 89 87 86 85 86 86 85 85 85 79 82 88 84 82 78 75 76 79 79 80 79 79 79 79
300 331 50 124 30 58 277 109 97 354 39 29 258 84 241 290 92 196 181 164 193 136 157 91 87 83 73 95 118 132 33 21 190 142 92 123 120 119 139 134 131 126 124 122 103 90 86 94 108 118 128 123 123 118 115 119 115 106 106 108 104 99 96 95 91 87 92 91 89 91 96 92 92 92 95 94 90 82 81 84 84 85 89 89 91 88 81 80 80 80 83 84 82 82 82 80 81
346 15 73 43 28 75 83 36 322 65 62 4 278 212 334 128 167 207 225 144 142 144 151 99 99 77 66 63 26 55 230 27 96 109 110 142 131 157 147 133 128 128 128 125 114 112 125 144 116 120 124 126 126 124 123 121 113 108 108 102 106 108 104 98 93 88 89 89 89 88 95 95 96 91 84 83 86 88 85 85 88 88 88 90 91 90 84 81 80 81 84 86 86 83 81 82 82
95 37 129 73 251 29 55 27 90 122 338 220 308 286 178 176 200 196 190 151 152 149 186 46 52 279 110 64 144 94 78 93 354 142 135 164 170 146 145 133 128 124 119 123 126 129 138 141 110 124 131 135 135 127 124 115 110 109 99 114 106 98 101 99 96 92 93 103 105 103 97 93 87 90 94 93 90 92 92 90 86 86 88 91 93 91 87 84 83 81 83 87 87 84 82 84 84
61 358 82 98 103 8 97 100 137 92 316 202 167 277 259 216 167 171 167 171 190 193 270 144 79 340 112 130 93 125 207 101 138 176 114 102 122 144 139 133 131 129 131 132 129 132 148 127 108 116 135 137 134 118 120 125 122 113 110 99 100 94 95 105 104 98 97 94 90 93 94 96 90 89 86 85 88 88 89 89 87 87 92 95 96 96 93 89 85 80 83 90 88 85 84 84 85
55 40 1 83 57 173 52 46 8 207 215 151 144 233 223 208 159 175 166 234 259 224 222 83 152 176 30 6 173 104 154 133 180 150 137 149 145 143 140 137 134 134 137 132 132 136 142 130 129 127 132 138 146 120 110 125 119 117 126 117 106 109 109 101 101 105 104 104 100 94 98 99 95 95 88 86 88 88 88 86 86 89 91 96 99 96 93 91 89 89 89 85 85 85 85 85 85
318 42 356 29 22 53 168 134 231 208 275 165 207 192 187 207 189 131 151 142 211 46 291 129 124 91 74 318 41 112 224 189 121 180 148 148 142 142 143 141 137 137 137 138 137 139 148 141 133 133 127 136 140 125 118 125 124 121 119 111 114 119 116 108 107 114 111 99 100 101 98 97 96 94 94 95 96 97 95 95 98 98 98 102 104 102 97 93 86 82 81 83 84 84 85 86 86
46 124 325 102 261 39 53 185 248 154 266 164 230 165 191 187 163 148 171 107 206 94 5 107 78 98 178 37 152 255 357 181 152 116 125 139 146 145 145 143 140 140 139 138 142 147 152 140 138 124 136 138 142 135 122 127 129 129 123 118 118 129 115 111 111 109 108 110 106 101 102 103 98 96 94 93 91 93 92 94 95 94 95 96 101 100 94 90 88 83 82 83 86 86 86 86 88
4 83 289 72 68 41 44 280 271 233 279 291 267 251 174 173 165 144 145 232 47 113 147 163 174 84 232 52 101 271 323 45 110 122 134 142 151 151 147 151 147 142 142 143 146 149 141 144 139 131 136 140 141 138 126 130 132 129 125 123 125 128 118 116 117 114 106 104 105 107 109 102 103 104 101 99 98 99 101 100 100 98 98 99 100 101 97 92 87 82 80 83 88 89 87 87 87
36 63 275 127 133 252 8 300 50 211 230 247 201 185 164 165 184 99 142 114 171 130 187 101 127 114 151 122 76 27 98 125 117 120 141 151 153 150 151 157 152 145 145 148 147 142 147 146 140 132 135 143 141 139 132 123 122 127 130 130 131 131 123 123 121 118 109 105 115 120 111 109 110 106 101 100 102 103 104 101 98 99 100 100 101 102 100 98 92 83 82 85 86 87 86 86 86
5 13 142 77 36 69 218 265 271 316 287 326 310 254 178 112 120 131 326 132 90 151 172 124 43 118 106 240 196 249 270 155 132 153 160 155 154 155 153 152 151 147 148 150 145 141 147 143 142 136 119 129 138 141 138 135 132 131 133 136 138 134 127 125 119 114 112 113 124 122 118 115 111 104 102 100 101 102 100 100 99 100 102 103 104 105 100 97 92 83 80 84 85 83 80 81 85
352 18 6 104 169 161 230 195 281 281 302 343 198 187 195 139 98 130 144 130 181 129 172 155 178 144 62 66 208 336 87 168 153 154 158 152 157 156 150 146 149 149 149 146 140 139 141 148 137 138 122 121 132 138 142 138 135 134 134 139 133 127 133 137 123 121 101 96 89 106 118 115 110 108 108 108 106 109 106 103 106 107 107 105 106 107 104 101 96 79 78 79 84 81 76 75 79
110 100 82 96 207 151 186 12 268 292 345 269 183 218 121 117 187 188 167 97 132 135 274 218 134 79 116 176 259 301 142 191 158 150 153 156 153 145 140 143 149 143 148 145 142 144 145 144 145 132 128 115 115 132 141 133 127 131 133 129 132 129 118 104 122 125 104 102 102 93 90 93 104 98 86 81 92 105 107 108 113 114 115 115 111 112 111 105 87 79 76 78 81 81 77 75 77
113 179 131 203 45 119 138 209 316 182 267 246 254 120 158 140 242 170 138 123 186 164 263 166 134 132 69 56 237 182 196 173 156 152 150 146 139 138 143 145 143 144 149 148 148 149 147 147 142 136 127 116 109 119 132 132 128 129 127 113 106 110 108 100 97 102 102 102 101 101 101 103 101 97 87 79 73 79 82 87 97 112 113 114 113 111 110 101 80 76 75 77 80 78 77 73 74
1 152 81 116 107 105 232 122 216 162 240 180 198 135 166 264 122 144 172 144 230 231 24 43 172 112 218 153 249 202 184 167 152 146 142 131 136 135 139 146 144 144 147 149 151 153 153 147 148 142 135 127 123 124 133 136 128 128 124 113 118 119 117 114 116 113 113 111 104 104 103 103 107 103 100 91 82 79 76 76 89 104 114 114 114 113 114 100 81 72 68 69 69 69 70 68 67
139 82 77 121 185 168 264 141 42 94 252 177 118 141 137 331 172 142 247 151 150 348 149 191 120 198 170 170 206 181 163 146 145 140 135 134 131 129 135 143 147 151 149 153 160 161 160 154 147 152 145 142 137 134 137 138 137 134 127 127 127 127 125 123 123 121 121 117 115 111 110 105 102 104 103 99 98 94 91 95 97 105 118 121 123 124 119 101 87 75 70 66 60 53 51 56 59
70 80 348 33 217 169 243 150 145 208 240 231 278 148 164 224 226 137 294 101 123 178 17 296 173 47 172 193 228 152 131 135 131 137 140 143 139 131 145 148 150 153 153 163 166 166 166 166 165 159 160 152 144 136 133 141 150 137 131 135 134 134 133 131 126 123 122 122 119 120 114 114 115 112 105 112 111 108 108 104 102 100 117 126 128 130 123 107 91 73 60 52 50 45 36 41 44
58 57 108 244 203 147 210 173 189 213 141 219 193 190 135 179 188 194 70 35 46 20 76 312 337 5 242 273 197 129 133 134 147 145 156 139 150 150 159 165 166 174 171 172 177 169 167 177 180 168 162 164 152 140 137 142 150 146 140 139 137 137 134 129 129 134 132 132 129 125 124 129 125 123 125 122 122 122 115 115 110 108 95 90 115 135 137 123 97 89 67 49 46 37 33 32 32
99 133 106 228 181 239 160 197 186 134 237 187 193 181 170 199 143 203 127 226 142 119 294 354 314 343 36 72 136 122 139 142 153 156 159 157 162 165 162 164 177 173 181 176 181 187 180 173 179 182 177 166 157 150 149 154 159 158 150 149 144 144 148 140 143 138 141 144 144 135 135 137 139 137 139 142 139 138 134 126 124 119 116 109 103 99 132 133 128 94 57 40 39 34 28 20 30
253 128 251 252 214 249 227 181 211 203 131 156 179 223 180 209 152 138 176 173 205 186 180 314 200 223 154 156 144 139 146 152 160 159 165 165 169 162 170 174 178 186 183 183 180 184 175 177 189 190 181 174 167 162 152 158 163 175 162 156 152 156 155 154 152 153 153 153 147 142 137 140 140 141 142 136 129 125 130 129 125 120 117 113 105 83 57 58 57 45 41 35 30 23 13 16 16
308 91 187 239 224 296 273 204 248 227 178 188 196 85 175 217 184 152 151 133 237 242 224 172 190 175 171 168 159 151 153 159 166 166 167 172 176 179 179 182 182 180 183 172 177 184 187 188 184 192 188 178 175 174 166 168 168 170 173 166 165 166 168 167 168 166 164 159 153 145 139 131 130 130 130 126 126 128 124 120 117 113 106 98 91 88 60 37 37 26 9 17 28 11 2 352 6
165 214 208 241 270 228 268 230 254 220 203 130 133 146 213 106 38 162 156 179 207 209 212 221 172 166 160 166 171 161 163 166 172 172 175 177 177 180 178 181 182 177 169 182 187 184 188 188 185 180 185 187 186 183 187 175 170 177 178 181 173 181 178 178 176 178 176 174 167 150 131 123 118 129 142 143 143 142 141 150 151 118 105 141 40 101 41 23 14 27 17 352 341 354 345 332 338
50 312 306 254 243 275 282 339 347 152 121 137 172 207 90 162 207 194 182 198 229 270 181 183 175 172 171 163 161 171 172 176 179 181 177 180 182 183 181 179 178 181 181 192 187 187 185 187 187 177 185 186 190 186 181 180 192 188 176 177 176 190 187 183 190 188 189 179 176 160 147 149 147 152 167 168 171 169 166 179 179 174 162 179 283 136 231 345 10 359 5 334 343 345 330 323 327
120 244 331 316 329 229 267 298 331 215 162 202 174 96 153 151 200 181 198 228 292 315 224 158 158 144 145 156 176 175 181 181 186 185 183 182 181 183 182 182 188 183 184 188 188 187 185 189 185 181 186 187 186 184 189 195 196 190 189 178 193 188 183 198 198 196 187 187 181 177 165 163 163 167 187 187 200 181 193 197 175 180 210 235 280 71 197 300 330 357 345 331 334 334 312 308 328
73 300 355 306 333 274 288 277 331 231 200 335 126 152 205 186 198 88 232 225 284 22 115 123 137 148 166 170 177 186 186 188 185 184 183 188 187 181 186 188 185 179 190 191 189 188 190 187 182 187 185 189 187 180 192 195 195 195 189 189 196 188 196 203 199 191 196 190 187 182 171 168 175 177 181 200 172 202 202 194 183 205 206 230 159 259 242 248 278 284 296 292 318 308 313 302 319
93 297 332 313 307 300 290 311 349 23 234 124 118 201 353 147 238 233 236 222 217 130 119 133 144 157 174 184 184 183 190 192 188 184 189 181 178 180 193 191 186 191 195 188 184 194 189 186 185 189 188 187 185 179 192 191 196 198 199 198 197 185 203 203 193 197 206 187 193 187 188 178 181 182 188 185 177 205 201 198 203 214 214 203 179 224 240 230 251 266 282 282 284 287 301 276 303
20 348 332 309 293 295 305 234 275 304 200 178 185 193 133 331 105 262 246 188 124 117 139 153 155 172 182 184 192 195 189 195 193 188 170 182 192 193 193 192 194 196 188 194 192 193 189 186 191 189 189 186 183 186 184 196 192 203 204 200 192 200 199 198 204 201 200 204 197 184 186 187 181 184 182 184 196 199 196 188 212 209 233 222 198 228 207 218 242 235 227 237 248 259 256 276 287
26 353 328 315 313 267 260 314 263 83 279 157 151 164 259 300 58 234 248 156 147 138 154 165 179 177 185 190 191 196 202 204 195 180 192 189 198 196 196 195 195 195 193 197 192 185 184 193 192 192 188 185 186 191 187 191 196 202 200 196 204 203 193 201 205 205 207 207 194 191 188 188 184 186 182 183 189 191 198 199 204 198 226 215 200 218 216 216 220 245 256 257 261 279 287 302 297
14 14 338 308 324 311 262 224 244 148 256 145 151 90 312 238 233 232 245 133 137 150 168 177 188 190 190 192 194 196 206 198 193 202 207 205 199 196 202 198 193 197 201 193 192 185 190 192 193 194 189 187 191 193 191 192 193 195 194 201 204 196 199 198 203 208 210 206 196 195 194 188 189 183 190 186 186 191 197 202 209 214 221 216 206 212 208 212 231 250 263 223 303 310 318 291 309
9 25 350 312 326 302 263 153 314 158 250 139 134 226 253 236 236 220 191 136 107 130 179 190 193 192 194 196 200 207 204 195 208 212 209 207 204 204 207 202 198 198 193 194 190 200 193 189 191 189 192 191 195 196 192 191 192 193 195 199 201 196 201 200 209 207 207 209 199 198 197 193 192 195 182 191 182 187 193 202 213 232 230 218 209 193 202 194 217 232 244 276 269 269 265 273 305
107 294 179 248 321 270 296 203 191 160 201 144 98 216 263 247 253 240 165 175 156 176 195 198 201 198 197 200 207 210 208 204 208 211 212 211 210 209 211 206 204 203 193 196 200 199 193 192 186 193 191 195 195 199 196 197 191 191 192 196 199 197 200 205 208 207 203 208 199 203 197 195 197 192 190 182 190 186 189 202 208 229 220 202 198 205 194 195 204 227 222 239 261 268 249 256 249
50 18 277 339 184 281 296 284 170 176 256 125 110 243 242 253 265 257 191 168 172 187 194 202 202 203 202 203 211 215 216 212 223 226 222 221 214 214 209 210 204 203 202 201 202 195 200 197 189 193 188 197 198 200 198 197 194 193 193 196 196 197 200 204 205 205 203 200 200 203 199 196 195 194 185 180 184 192 192 199 216 215 196 176 218 193 180 204 217 234 233 216 252 261 257 272 230
36 170 299 278 332 257 336 242 229 328 107 346 168 218 305 285 254 288 234 171 181 196 206 206 210 211 208 209 211 218 224 229 230 226 223 218 220 219 216 213 207 207 206 199 199 198 201 199 193 195 192 197 198 200 200 199 194 195 195 196 199 195 201 205 204 200 199 196 199 203 198 196 195 189 186 183 174 185 193 203 216 205 182 185 195 210 218 216 185 236 247 220 229 269 283 279 285
224 109 206 233 240 266 249 298 274 215 138 200 235 223 235 243 281 315 200 195 173 205 217 214 211 213 214 212 214 218 220 222 223 217 219 212 217 217 217 214 212 210 211 207 203 199 201 196 196 198 195 196 196 197 197 196 197 194 194 196 196 200 205 203 201 193 199 199 192 200 196 197 197 190 187 186 187 185 185 191 204 205 189 192 205 193 218 227 276 235 235 243 208 230 272 266 275
176 151 209 273 249 217 252 222 232 140 299 179 213 231 252 259 274 275 220 192 191 210 210 208 210 216 220 217 217 224 225 226 230 220 216 211 213 214 214 213 211 209 209 210 206 207 204 201 197 200 197 195 198 194 192 193 190 195 193 191 197 205 205 204 197 200 200 196 197 197 190 193 197 193 192 188 189 177 171 182 189 208 195 195 197 208 235 244 229 254 241 252 226 240 249 247 253
139 169 176 192 231 237 216 237 271 179 174 220 195 210 241 253 259 250 184 182 201 231 271 269 237 230 230 223 225 224 227 234 235 225 218 213 213 209 210 209 209 207 208 207 207 204 206 205 202 202 203 197 193 190 183 188 184 188 194 203 216 212 203 198 204 206 199 202 199 195 193 189 192 198 198 196 198 186 191 183 195 188 192 195 204 210 225 222 227 234 241 243 265 257 236 251 251
109 125 231 258 245 278 274 263 272 292 156 221 207 217 232 245 246 251 170 158 201 250 248 233 231 223 222 225 225 226 227 232 231 220 217 214 212 210 210 206 208 206 208 205 205 206 204 203 196 205 202 194 188 190 191 188 191 195 205 203 206 193 197 194 204 206 206 207 200 197 197 190 187 197 206 201 207 202 207 205 202 212 191 190 208 219 221 223 224 219 234 214 233 257 283 234 274
122 69 312 290 245 271 256 254 350 322 182 258 217 229 247 248 258 247 134 148 219 213 228 237 231 222 222 223 229 228 229 250 259 213 218 213 211 212 208 208 203 205 212 203 205 207 205 203 201 203 194 194 197 197 194 195 196 197 191 203 192 182 185 195 206 206 208 207 206 203 203 193 182 186 202 210 213 209 210 202 190 218 210 216 211 227 244 244 232 232 230 264 198 214 251 224 201
110 162 275 281 269 242 277 247 242 305 138 268 34 212 251 251 252 243 173 204 233 217 213 226 220 217 225 228 234 236 243 248 231 234 226 213 210 209 203 205 207 209 207 205 208 206 207 205 205 200 196 193 201 199 193 200 200 199 191 185 182 186 202 197 196 195 194 202 209 208 204 210 195 191 198 206 213 214 215 208 201 205 211 208 213 225 217 221 219 226 215 219 250 226 243 260 186
185 180 230 231 267 283 298 312 18 298 153 276 224 215 270 271 262 258 217 203 243 232 219 235 212 223 224 224 222 225 229 237 234 226 224 213 205 206 204 207 208 205 208 209 209 208 206 206 201 200 199 198 199 199 197 202 197 190 187 167 179 175 181 183 189 190 193 204 218 212 216 206 212 206 198 199 205 210 209 211 222 236 239 211 218 223 214 232 230 238 224 227 225 260 214 260 192
203 196 218 234 251 248 205 281 347 299 328 87 66 328 293 251 263 279 252 226 242 256 242 253 241 231 235 258 294 230 230 230 235 232 231 216 210 210 205 207 200 203 206 208 206 205 204 203 202 200 200 200 201 195 194 183 152 139 118 71 91 104 49 124 176 214 199 202 210 210 214 201 204 206 203 204 203 210 207 210 209 218 223 221 200 218 229 231 227 227 216 215 200 218 257 244 262
217 225 204 225 255 277 284 311 329 349 309 250 177 320 258 288 273 241 257 151 240 247 233 241 233 233 236 238 239 243 241 233 229 228 222 212 212 212 210 206 204 208 210 210 205 206 202 201 201 202 203 200 201 196 189 173 176 170 162 170 183 197 208 196 209 208 186 202 213 200 203 204 205 205 203 207 209 214 218 219 220 219 218 212 202 221 236 246 236 225 218 205 214 214 228 258 271
181 225 181 218 251 292 293 290 105 284 248 288 141 212 270 319 274 241 238 232 236 250 220 242 240 241 236 234 237 236 233 236 236 245 238 219 227 219 217 209 209 209 214 202 204 204 203 203 199 198 200 201 199 193 180 175 180 182 186 193 198 202 213 225 191 167 194 209 195 199 211 205 205 203 208 207 212 213 219 220 221 216 213 217 217 225 237 240 246 241 212 197 217 210 172 240 252
225 122 151 196 274 280 265 232 208 238 289 301 304 183 228 270 259 245 315 297 271 268 258 258 250 241 236 234 235 235 233 228 223 226 225 221 213 206 211 210 205 211 204 196 204 199 203 203 195 196 199 200 195 183 179 182 186 188 192 200 200 203 208 212 180 201 200 183 190 210 205 204 205 207 209 210 213 212 213 220 220 222 222 224 216 227 231 239 249 268 201 219 244 202 213 228 260
198 176 196 208 178 232 311 215 237 262 289 269 256 288 256 248 270 313 21 270 273 259 253 251 247 238 239 238 238 236 233 225 215 220 221 218 212 212 215 213 215 208 197 200 200 200 200 199 198 196 199 195 188 178 179 187 191 188 192 192 201 213 201 198 177 169 179 181 192 210 197 207 200 207 211 211 217 212 199 213 218 213 210 214 203 229 262 277 209 227 207 184 204 217 203 225 233
258 95 86 82 90 81 74 242 258 289 228 246 232 181 221 275 274 310 341 231 253 259 256 247 241 234 232 236 241 241 239 231 221 224 227 225 220 219 215 218 208 209 203 203 201 192 194 190 195 192 200 191 185 180 180 186 188 182 189 194 201 200 180 174 161 187 186 177 194 203 197 183 189 192 176 148 169 196 194 193 168 142 109 100 109 168 160 164 197 219 224 202 198 199 200 203 217
100 119 96 73 46 34 28 75 116 337 250 241 228 250 200 280 238 205 187 218 199 239 269 264 261 259 258 254 254 256 251 235 227 229 234 235 235 232 208 211 215 206 204 193 196 194 187 189 192 196 200 187 183 183 179 186 185 186 193 195 198 192 184 175 180 198 173 165 187 193 177 152 103 114 120 88 111 122 115 116 118 112 122 149 136 118 124 128 155 192 206 179 173 188 206 206 222
149 162 148 126 209 12 25 326 61 214 254 258 232 198 163 223 293 263 236 259 225 215 229 244 254 260 256 250 250 252 244 229 226 227 234 230 247 244 209 216 207 200 185 198 197 187 191 194 189 198 197 191 185 182 182 185 184 191 195 191 195 191 179 185 193 195 185 183 183 177 143 120 123 133 136 123 115 121 122 118 117 113 131 132 90 94 82 79 41 64 69 68 14 16 15 350 312
188 132 161 151 229 126 254 227 235 219 229 318 68 175 27 242 230 272 269 249 263 222 223 240 248 265 267 262 258 264 261 239 219 219 224 220 218 215 210 213 194 194 198 194 193 191 192 192 192 196 204 191 188 181 186 185 185 191 189 189 193 184 186 191 195 189 182 181 174 154 154 157 153 132 144 134 163 143 126 134 147 123 98 81 88 75 81 79 68 61 83 89 85 82 104 99 62
188 188 169 158 166 168 214 225 316 316 288 270 322 339 272 267 283 235 255 260 244 234 231 242 250 258 270 273 280 279 261 234 231 228 227 224 219 215 210 203 202 200 197 194 192 190 191 193 196 199 206 185 185 182 185 183 190 187 185 184 186 181 192 190 190 182 185 181 172 170 171 168 168 166 165 167 166 149 111 142 141 87 108 87 111 141 117 89 87 77 63 68 73 79 90 99 109
200 125 169 180 164 166 201 187 211 221 219 256 272 88 233 125 245 232 231 268 301 270 235 248 253 259 266 279 287 277 270 250 235 232 224 224 223 214 209 206 204 202 197 196 193 195 183 195 194 202 197 186 181 186 181 185 185 182 183 185 184 184 185 181 186 183 173 168 173 161 167 161 155 173 161 153 142 122 121 83 81 96 104 139 130 93 110 108 79 76 58 82 69 24 96 100 112
194 172 92 172 216 114 157 212 169 272 288 293 210 212 191 186 266 287 243 267 283 271 261 247 266 264 270 280 264 258 250 252 235 234 244 242 230 223 217 210 207 199 198 196 198 191 189 198 196 200 196 182 182 179 186 181 179 176 179 181 185 178 170 165 154 154 166 167 162 157 159 160 153 144 139 116 73 96 103 111 105 104 111 102 96 106 116 107 119 115 121 75 74 3 61 53 33
191 121 212 208 130 159 234 35 10 72 32 256 155 312 291 300 313 282 329 322 274 280 270 264 273 291 307 266 271 271 265 260 255 245 248 260 269 253 232 221 217 206 197 200 199 194 195 186 184 190 184 173 180 181 176 177 171 172 180 175 164 162 162 166 168 167 163 159 148 148 144 149 134 127 124 118 109 90 96 103 93 67 56 81 86 69 82 79 75 85 81 73 60 63 76 62 53
115 203 211 97 67 97 158 228 2 210 230 260 70 236 301 345 278 322 340 296 279 285 277 270 286 291 283 261 255 256 256 255 260 257 253 251 249 244 234 228 217 208 203 201 204 191 186 181 176 173 168 174 181 173 170 169 169 173 167 165 166 165 162 158 153 150 148 136 132 126 126 125 130 132 119 105 100 97 90 86 98 88 85 76 71 54 54 69 84 68 78 73 53 80 92 74 56
181 195 163 157 202 217 274 143 235 203 239 272 298 308 264 193 241 331 305 270 269 271 277 293 267 259 250 253 253 251 263 282 270 259 257 255 242 244 232 225 224 219 213 207 190 167 161 168 175 172 174 176 171 169 164 165 167 163 163 161 156 149 146 142 140 139 140 137 141 138 125 124 116 114 110 113 108 104 100 90 101 100 86 84 76 76 81 76 83 87 68 72 38 85 83 78 50
70 74 163 269 103 234 144 201 159 121 256 10 282 14 251 199 217 208 265 277 263 253 275 274 267 259 260 259 251 243 244 242 248 249 245 237 238 229 226 226 225 214 206 201 181 168 172 170 161 161 148 147 149 156 156 155 155 144 139 134 138 141 142 140 143 140 140 138 139 127 122 126 130 114 113 117 118 120 120 113 102 104 95 87 84 71 84 92 84 81 85 74 45 76 76 76 70
112 124 195 200 194 283 110 103 185 205 206 206 251 295 272 250 213 193 217 226 249 273 254 263 265 256 246 245 243 243 240 240 237 235 234 236 238 244 233 233 234 224 188 170 174 183 179 166 167 162 158 160 163 160 154 151 144 142 138 139 138 134 130 125 123 128 127 129 128 127 128 133 120 121 127 122 124 127 124 119 113 108 115 117 109 98 94 97 90 88 79 91 72 78 83 60 67
179 170 194 182 158 192 184 238 46 93 201 242 231 264 253 268 183 208 224 239 271 250 248 274 279 278 281 274 261 239 250 245 247 248 238 237 241 241 218 103 115 144 164 177 182 162 167 177 174 163 157 165 158 158 154 146 145 141 139 136 132 126 125 120 120 124 125 130 134 130 132 130 123 137 133 129 126 129 123 123 117 121 119 116 108 99 97 94 98 92 82 81 85 92 101 98 86